Location: *
(45.8589°N, 4.7139°E)
Time: 11:35:16
(UTC+00:00)

CZ-4C R/B - Pass Details

Date: 09 April 2020
Orbit: 637 x 1365 km, 63.4° (Epoch: 05 June)

Event Time Altitude Azimuth Distance (km) Brightness Sun altitude
Rises 22:38:11 0° 318° (NW) 3,871 6.5 -34.2°
Reaches altitude 10° 22:40:44 10° 314° (NW) 3,010 5.7 -34.4°
Enters shadow 22:46:53 52° 266° (W) 1,502 3.4 -34.7°
